[[{"header":{"parameterUnit":"m.s-1","parameterCategory":1,"la1":30.2991,"la2":30.254,"lo1":-89.0895,"lo2":-89.0444,"dy":0.0017,"dx":0.0017,"nx":28,"ny":28,"refTime":"2026-01-29T03:00:00:Z","depth":0,"parameterNumber":2,"parameterNumberName":"U-component_of_WINDS"},"data":[0,0,0,0,0,0,0,0,0,0,0,0,0,0,0,0,0,0,0,0,0,0,0,0,0,0,0,0,0,0,0,0,0,0,0,0,0,0,0,0,0,0,0,0,0,0,0,0,0,0,0,0,0,0,0,0,0,0,-0.2779,-0.278,0,-0.2804,-0.2805,-0.2805,-0.2792,-0.2791,-0.2791,-0.279,-0.2817,-0.2818,-0.2819,0,0,0,0,0,0,0,0,0,0,0,0,0,-0.2721,-0.2722,-0.2779,-0.278,-0.278,-0.2804,-0.2805,-0.2805,-0.2792,-0.2791,-0.279,-0.279,-0.2816,-0.2818,-0.2819,0,0,0,0,0,0,0,0,0,0,0,0,0,-0.2746,-0.2722,-0.2779,-0.2776,-0.2776,-0.2804,-0.2805,-0.2805,-0.2792,-0.2791,-0.279,-0.2789,-0.2816,-0.2818,-0.2819,-0.2852,0,0,-0.2826,-0.2826,0,0,0,0,0,0,0,0,-0.2745,-0.2748,-0.2776,-0.2777,-0.2777,-0.2794,-0.2794,-0.2821,-0.2792,-0.2786,-0.279,-0.2789,-0.281,-0.2812,-0.2819,-0.2853,-0.2854,-0.2826,-0.2827,-0.2828,-0.2828,0,0,0,0,0,0,0,-0.2743,-0.2747,-0.2789,-0.2777,-0.2777,-0.2774,-0.2776,-0.2799,-0.2803,-0.2787,-0.2786,-0.2789,-0.281,-0.2817,-0.282,-0.2855,-0.2826,-0.2827,-0.2829,-0.283,-0.2915,-0.2916,0,0,0,0,0,0,-0.2741,-0.2746,-0.2788,-0.279,-0.2758,-0.2776,-0.2779,-0.2789,-0.2803,-0.2804,-0.279,-0.2788,-0.2814,-0.2817,-0.2821,-0.2858,-0.2828,-0.283,-0.2831,-0.2914,-0.2915,-0.2916,0,0,0,0,0,0,-0.274,-0.2745,-0.2787,-0.2768,-0.2773,-0.2778,-0.279,-0.279,-0.2798,-0.2805,-0.2806,-0.2797,-0.2814,-0.2818,-0.2844,-0.2859,-0.2831,-0.2832,-0.2913,-0.2914,-0.2916,-0.2934,0,0,0,0,0,0,-0.2738,-0.2745,-0.2757,-0.2768,-0.2774,-0.281,-0.2791,-0.2792,-0.2801,-0.28,-0.2812,-0.2813,-0.2813,-0.2841,-0.2846,-0.2861,-0.2834,-0.2911,-0.2913,-0.2915,-0.2932,-0.2937,-0.294,0,0,0,0,0,-0.2736,-0.2762,-0.2758,-0.2763,-0.2789,-0.2811,-0.2814,-0.2814,-0.2803,-0.2815,-0.282,-0.2813,-0.2857,-0.2844,-0.2849,-0.2865,-0.291,-0.2913,-0.2915,-0.2931,-0.2936,-0.294,0,0,0,0,0,0,-0.2753,-0.2763,-0.2759,-0.2789,-0.2799,-0.2809,-0.2824,-0.2819,-0.2833,-0.2831,-0.283,-0.2833,-0.286,-0.2865,-0.2851,-0.2897,-0.2882,-0.2885,-0.2892,-0.2897,-0.29,-0.2898,-0.2836,0,0,0,0,0,-0.276,-0.2777,-0.2785,-0.2811,-0.2816,-0.2819,-0.2829,-0.2827,-0.2838,-0.2843,-0.2849,-0.286,-0.2876,-0.2887,-0.2902,-0.2934,-0.2935,-0.2947,-0.2951,-0.2954,-0.2957,-0.2972,-0.2977,-0.2924,-0.2924,-0.2924,0,0,-0.2776,-0.2783,-0.2794,-0.2814,-0.2822,-0.2839,-0.2823,-0.2842,-0.2855,-0.2846,-0.287,-0.2875,-0.2887,-0.2916,-0.2929,-0.2921,-0.2972,-0.2957,-0.296,-0.2961,-0.2975,-0.298,-0.2985,-0.2926,-0.2926,-0.2925,0,0,-0.2811,-0.2819,-0.2841,-0.2849,-0.286,-0.2862,-0.2868,-0.2878,-0.2881,-0.2905,-0.2898,-0.2913,-0.2942,-0.295,-0.2958,-0.2996,-0.299,-0.3001,-0.302,-0.3036,-0.304,-0.3043,-0.3056,-0.306,-0.3004,-0.3004,-0.3005,0,-0.2829,-0.2854,-0.2853,-0.2872,-0.288,-0.2872,-0.2894,-0.2902,-0.2918,-0.2924,-0.2916,-0.295,-0.2958,-0.2988,-0.2997,-0.3004,-0.3009,-0.3,-0.3039,-0.3043,-0.3046,-0.3058,-0.3063,-0.3006,-0.3006,-0.3005,-0.3005,0,-0.2874,-0.2891,-0.2907,-0.2922,-0.2933,-0.2954,-0.2955,-0.2966,-0.2964,-0.2966,-0.2991,-0.3,-0.3016,-0.3023,-0.3022,-0.3052,-0.3047,-0.3039,-0.3024,-0.3053,-0.3063,-0.3068,-0.3007,-0.3007,-0.3007,-0.3006,0,0,-0.2921,-0.2934,-0.294,-0.2946,-0.2959,-0.2972,-0.2992,-0.3007,-0.3016,-0.3028,-0.3044,-0.3067,-0.306,-0.3069,-0.3068,-0.3081,-0.3109,-0.3071,-0.3072,-0.3077,-0.3142,-0.3147,-0.3152,-0.3105,-0.3106,-0.3107,-0.3141,0,-0.2957,-0.299,-0.2989,-0.3021,-0.3036,-0.3029,-0.3046,-0.3055,-0.3058,-0.3072,-0.3075,-0.3091,-0.3081,-0.3086,-0.3099,-0.3103,-0.3122,-0.3101,-0.312,-0.312,-0.3115,-0.3158,-0.3164,-0.3195,-0.3145,-0.3146,-0.3146,0,-0.3003,-0.3015,-0.3047,-0.3056,-0.3062,-0.3078,-0.3091,-0.3105,-0.3115,-0.3116,-0.3125,-0.3122,-0.3142,-0.3127,-0.3153,-0.3138,-0.3146,-0.3149,-0.3151,-0.3151,-0.3134,-0.3159,-0.3205,-0.3209,-0.3153,-0.3153,-0.3152,0,-0.3032,-0.3057,-0.3079,-0.3085,-0.3096,-0.3106,-0.3112,-0.3121,-0.3129,-0.3142,-0.3147,-0.3162,-0.3169,-0.318,-0.3181,-0.317,-0.3207,-0.3192,-0.3208,-0.3208,-0.3215,-0.3215,-0.3262,-0.3222,-0.3222,-0.3222,-0.3222,0,-0.3071,-0.3091,-0.3092,-0.3106,-0.3127,-0.3126,-0.3148,-0.3152,-0.316,-0.3174,-0.3169,-0.3183,-0.3183,-0.3197,-0.3197,-0.3218,-0.3222,-0.3223,-0.3223,-0.3223,-0.3223,-0.3227,-0.3224,-0.3223,-0.3223,-0.3223,-0.3223,0,-0.3107,-0.3109,-0.3132,-0.314,-0.3143,-0.3159,-0.3166,-0.3178,-0.3181,-0.3199,-0.3203,-0.3207,-0.3222,-0.3224,-0.3243,-0.3243,-0.3268,-0.3266,-0.3264,-0.3263,-0.3278,-0.3276,-0.3329,-0.3336,-0.3293,-0.3294,-0.3294,0,-0.3131,-0.3146,-0.3156,-0.3164,-0.317,-0.3185,-0.3193,-0.3193,-0.3202,-0.3214,-0.3225,-0.324,-0.3252,-0.3277,-0.3282,-0.3296,-0.3293,-0.3311,-0.3295,-0.3294,-0.3292,-0.329,-0.3291,-0.3314,-0.3314,-0.3314,-0.3315,0,-0.3174,-0.3173,-0.3186,-0.3199,-0.3209,-0.322,-0.3229,-0.3237,-0.3237,-0.3248,-0.3264,-0.3273,-0.3291,-0.3306,-0.3319,-0.3324,-0.3319,-0.332,-0.3324,-0.3323,-0.3321,-0.3321,-0.3271,-0.3318,-0.3318,-0.3318,-0.3317,-0.3317,-0.3204,-0.3216,-0.3224,-0.3238,-0.3245,-0.3254,-0.3266,-0.3269,-0.3282,-0.3297,-0.3296,-0.3313,-0.3322,-0.3339,-0.3345,-0.3358,-0.3352,-0.3359,-0.336,-0.3361,-0.3362,-0.332,-0.3361,-0.3361,-0.3361,-0.3361,-0.3361,0,-0.3244,-0.3249,-0.3262,-0.3275,-0.3286,-0.328,-0.329,-0.33,-0.3314,-0.3323,-0.3334,-0.3352,-0.3366,-0.3371,-0.3385,-0.3394,-0.3392,-0.3397,-0.3396,-0.3397,-0.3367,-0.3362,-0.3399,-0.3399,-0.3399,-0.3399,-0.3399,-0.3399,-0.3267,-0.3287,-0.3288,-0.3311,-0.3316,-0.3332,-0.3338,-0.3346,-0.3352,-0.3372,-0.3383,-0.3386,-0.3393,-0.3407,-0.342,-0.3421,-0.3425,-0.3432,-0.3432,-0.3403,-0.3399,-0.3396,-0.339,-0.3433,-0.3433,-0.346,-0.3461,-0.3461]},{"header":{"parameterUnit":"m.s-1","parameterCategory":1,"la1":30.2991,"la2":30.254,"lo1":-89.0895,"lo2":-89.0444,"dy":0.0017,"dx":0.0017,"nx":28,"ny":28,"refTime":"2026-01-29T03:00:00:Z","depth":0,"parameterNumber":3,"parameterNumberName":"V-component_of_WINDS"},"data":[0,0,0,0,0,0,0,0,0,0,0,0,0,0,0,0,0,0,0,0,0,0,0,0,0,0,0,0,0,0,0,0,0,0,0,0,0,0,0,0,0,0,0,0,0,0,0,0,0,0,0,0,0,0,0,0,0,0,-1.6236,-1.6237,0,-1.6293,-1.6294,-1.6294,-1.631,-1.631,-1.631,-1.6309,-1.6367,-1.6369,-1.637,0,0,0,0,0,0,0,0,0,0,0,0,0,-1.614,-1.6142,-1.6236,-1.6237,-1.6238,-1.6293,-1.6294,-1.6295,-1.631,-1.631,-1.631,-1.6309,-1.6366,-1.6368,-1.6371,0,0,0,0,0,0,0,0,0,0,0,0,0,-1.6188,-1.6142,-1.6236,-1.6252,-1.6254,-1.6293,-1.6294,-1.6295,-1.6311,-1.631,-1.631,-1.6309,-1.6366,-1.6368,-1.6371,-1.6397,0,0,-1.6379,-1.638,0,0,0,0,0,0,0,0,-1.6185,-1.6191,-1.6249,-1.6251,-1.6253,-1.6294,-1.6281,-1.6329,-1.6311,-1.6289,-1.6309,-1.6309,-1.6343,-1.6348,-1.6359,-1.64,-1.6402,-1.638,-1.6381,-1.6382,-1.6383,0,0,0,0,0,0,0,-1.6182,-1.6189,-1.6259,-1.625,-1.6253,-1.6256,-1.6262,-1.629,-1.6318,-1.6291,-1.6292,-1.6299,-1.6344,-1.6357,-1.6361,-1.6403,-1.6379,-1.6382,-1.6384,-1.6385,-1.6468,-1.6468,0,0,0,0,0,0,-1.6176,-1.6186,-1.6257,-1.626,-1.6217,-1.6258,-1.6265,-1.6282,-1.6318,-1.6323,-1.6299,-1.6299,-1.6352,-1.6358,-1.6363,-1.6395,-1.6382,-1.6385,-1.6386,-1.6467,-1.6468,-1.6468,0,0,0,0,0,0,-1.6174,-1.6182,-1.6255,-1.6224,-1.6233,-1.626,-1.6279,-1.6283,-1.6295,-1.6324,-1.6329,-1.6307,-1.6352,-1.6359,-1.6388,-1.6398,-1.6386,-1.6389,-1.6466,-1.6467,-1.6468,-1.6461,0,0,0,0,0,0,-1.6171,-1.6181,-1.6192,-1.6224,-1.6235,-1.628,-1.6279,-1.6284,-1.63,-1.6301,-1.6333,-1.6337,-1.6352,-1.6384,-1.6391,-1.6401,-1.6391,-1.6466,-1.6467,-1.6468,-1.6461,-1.6462,-1.6462,0,0,0,0,0,-1.6167,-1.6187,-1.6192,-1.62,-1.6249,-1.628,-1.6286,-1.6303,-1.6301,-1.6311,-1.633,-1.6336,-1.6396,-1.6387,-1.6395,-1.6406,-1.6465,-1.6467,-1.6468,-1.646,-1.6461,-1.6462,0,0,0,0,0,0,-1.6155,-1.6192,-1.6197,-1.6229,-1.6251,-1.6283,-1.6297,-1.6304,-1.6328,-1.6327,-1.6347,-1.6354,-1.6382,-1.6397,-1.6387,-1.6433,-1.6431,-1.6433,-1.6422,-1.6423,-1.6424,-1.642,-1.6393,0,0,0,0,0,-1.6156,-1.6179,-1.621,-1.6234,-1.6245,-1.6269,-1.6283,-1.6295,-1.6319,-1.6328,-1.6349,-1.6371,-1.6395,-1.641,-1.6434,-1.6463,-1.647,-1.6475,-1.6475,-1.6476,-1.6478,-1.6494,-1.6496,-1.6473,-1.6473,-1.6473,0,0,-1.6159,-1.6181,-1.6195,-1.6232,-1.6251,-1.6274,-1.6277,-1.6301,-1.6318,-1.6332,-1.6361,-1.6376,-1.6403,-1.6432,-1.6446,-1.6446,-1.6486,-1.6478,-1.6478,-1.648,-1.6495,-1.6498,-1.65,-1.6473,-1.6473,-1.6473,0,0,-1.6174,-1.6194,-1.6216,-1.6235,-1.6264,-1.6279,-1.6284,-1.6315,-1.6326,-1.6355,-1.6366,-1.6386,-1.6427,-1.6445,-1.646,-1.6482,-1.6489,-1.6489,-1.6494,-1.6509,-1.6511,-1.6513,-1.652,-1.6522,-1.6492,-1.6491,-1.6491,0,-1.6173,-1.6208,-1.6227,-1.625,-1.6266,-1.628,-1.6302,-1.632,-1.6354,-1.6364,-1.6364,-1.6415,-1.6434,-1.6467,-1.6472,-1.6484,-1.649,-1.6486,-1.6509,-1.6511,-1.6513,-1.652,-1.6523,-1.6491,-1.6491,-1.6491,-1.6491,0,-1.6205,-1.623,-1.6244,-1.6277,-1.6295,-1.6318,-1.6339,-1.6355,-1.6364,-1.638,-1.6409,-1.6432,-1.6461,-1.647,-1.6479,-1.6504,-1.6503,-1.6506,-1.6503,-1.6515,-1.6522,-1.6525,-1.6491,-1.6491,-1.6491,-1.6491,0,0,-1.6215,-1.6258,-1.6262,-1.6277,-1.631,-1.6328,-1.6352,-1.6379,-1.6392,-1.6416,-1.6435,-1.6469,-1.6471,-1.6488,-1.65,-1.6513,-1.6529,-1.6514,-1.6515,-1.6515,-1.6557,-1.6554,-1.6557,-1.6533,-1.6534,-1.6534,-1.6554,0,-1.6234,-1.6276,-1.6293,-1.6327,-1.6349,-1.6362,-1.6382,-1.6404,-1.6419,-1.644,-1.6456,-1.648,-1.6482,-1.6492,-1.6506,-1.6524,-1.6537,-1.6523,-1.6551,-1.6552,-1.6543,-1.6561,-1.6558,-1.6576,-1.6557,-1.6558,-1.6558,0,-1.6261,-1.6285,-1.6321,-1.635,-1.636,-1.6378,-1.6404,-1.6424,-1.6449,-1.6459,-1.6477,-1.6488,-1.6513,-1.6509,-1.6543,-1.6532,-1.6545,-1.6556,-1.6557,-1.656,-1.6555,-1.6563,-1.6582,-1.6584,-1.6563,-1.6562,-1.6562,0,-1.6263,-1.6304,-1.6331,-1.6343,-1.6378,-1.639,-1.6405,-1.643,-1.6445,-1.6468,-1.6478,-1.6504,-1.6518,-1.6537,-1.6555,-1.6551,-1.6586,-1.6584,-1.6595,-1.6594,-1.6601,-1.66,-1.6621,-1.661,-1.661,-1.661,-1.661,0,-1.6282,-1.6304,-1.6332,-1.6349,-1.6373,-1.6392,-1.6415,-1.6431,-1.6453,-1.6472,-1.6485,-1.6503,-1.6526,-1.6546,-1.656,-1.6585,-1.6591,-1.66,-1.6603,-1.6598,-1.6597,-1.6606,-1.6605,-1.6611,-1.6611,-1.6611,-1.661,0,-1.6288,-1.6309,-1.6338,-1.6369,-1.6377,-1.6394,-1.642,-1.6436,-1.6452,-1.6476,-1.6483,-1.6507,-1.6532,-1.6552,-1.6584,-1.6593,-1.6619,-1.6624,-1.6611,-1.6613,-1.6621,-1.662,-1.6648,-1.6653,-1.664,-1.664,-1.664,0,-1.6299,-1.6316,-1.6348,-1.6362,-1.6377,-1.6399,-1.6415,-1.6435,-1.6451,-1.648,-1.6492,-1.6518,-1.654,-1.6579,-1.6599,-1.6624,-1.6628,-1.6636,-1.6632,-1.6626,-1.6627,-1.6626,-1.6627,-1.6637,-1.6637,-1.6637,-1.6637,0,-1.6315,-1.6324,-1.6346,-1.6372,-1.6391,-1.6412,-1.6433,-1.6444,-1.6467,-1.6484,-1.651,-1.6527,-1.656,-1.6585,-1.6612,-1.6627,-1.6636,-1.6638,-1.6642,-1.6637,-1.6628,-1.6632,-1.6612,-1.6637,-1.6637,-1.6637,-1.6637,-1.6637,-1.6323,-1.6338,-1.6363,-1.6388,-1.6406,-1.6426,-1.6442,-1.646,-1.6482,-1.651,-1.6521,-1.6547,-1.6571,-1.6608,-1.6623,-1.6643,-1.6644,-1.6649,-1.665,-1.6651,-1.665,-1.6626,-1.6648,-1.6648,-1.6648,-1.6648,-1.6648,0,-1.6339,-1.6356,-1.6378,-1.6408,-1.6427,-1.6434,-1.6458,-1.6473,-1.6496,-1.6518,-1.6539,-1.6568,-1.6592,-1.6615,-1.664,-1.6652,-1.6657,-1.6658,-1.6657,-1.666,-1.6649,-1.6643,-1.6654,-1.6654,-1.6654,-1.6654,-1.6654,-1.6654,-1.6349,-1.6375,-1.6387,-1.6422,-1.6439,-1.6465,-1.6478,-1.6496,-1.6513,-1.6545,-1.6566,-1.6581,-1.6602,-1.663,-1.6652,-1.6658,-1.6667,-1.6667,-1.6674,-1.6662,-1.6661,-1.6661,-1.6655,-1.6669,-1.6669,-1.6684,-1.6684,-1.6684]}]]